Location: Kellogg
(38.0159°N, 90.0546°W)
Time: 02:17:57
(UTC+00:00)

SR - Pass Details

Date: 18 September 2024
Orbit: 577 x 855 km, 66.7° (Epoch: 10 October)

Event Time Altitude Azimuth Distance (km) Brightness Sun altitude
Rises 04:34:24 0° 317° (NW) 3,008 ? -46.2°
Enters shadow 04:35:24 - 313° (NW) 2,653 ? -46.3°
Reaches altitude 10° 04:36:58 10° 304° (NW) 2,138 - -46.5°
Maximum altitude 04:40:54 25° 250° (WSW) 1,439 - -46.8°
Drops below altitude 10° 04:45:04 10° 197° (SSW) 2,277 - -47.2°
Sets 04:47:54 0° 184° (S) 3,249 - -47.4°
